Погода в Партизанском

Россия / Калининградская область     54°35′32″N   20°37′24″E
темп.,
°C
ветер,
м/с
пор.,
м/с
влажн.,
%
обл.,
%
осадки,
мм/ч
давл.,
гПа
погр.,
м
28 февраля, вс
вс2823:00+1зсз39920 0.0 1032263
02:00+2з4108347 0.0 1031290
05:00+2з5118875 0.0 1029340
08:00+3з6129671 0.0 1029520
11:00+3зсз71292100 0.0 1028548
14:00+4зсз61086100 0.0 1028597
17:00+4зсз588659 0.0 1028403
20:00+2зсз499231 0.0 1029247
1 марта, пн
пн123:00+2сз48910 0.0 1031197
02:00+2сз34910 0.0 103280
05:00+2сз23910 0.0 103232
08:00+2з23910 0.0 103337
11:00+6з46770 0.0 1033274
14:00+9зюз47640 0.0 1032480
17:00+8зюз49720 0.0 1030563
20:00+5зюз512811 0.0 1030371
2 марта, вт
вт223:00+4з613770 0.0 1029446
02:00+3з613890 0.0 1029440
05:00+3з6149213 0.0 1027512
08:00+3зсз7139351 0.0 1027543
11:00+4зсз7118888 0.0 1028455
14:00+6зсз587979 0.0 1029480
17:00+5зсз46802 0.0 1029342
20:00+2зсз24921 0.0 103179
3 марта, ср
ср323:00+1ссз128741 0.0 103223
02:00+1с118035 0.0 103222
05:00+1зюз1176100 0.0 103122
08:00+1ююз2275100 0.0 103122
11:00+5ююз346234 0.0 1029335
14:00+8юз366917 0.0 1027615
17:00+7зюз37770 0.0 1024524
20:00+4юз410857 0.0 1022226
4 марта, чт
чт423:00+3зюз4118057 0.0 1019253
02:00+2зюз4108728 0.0 1017245
05:00+1зюз48910 0.0 1014202
08:00+1зюз39940 0.0 1013216
11:00+4зсз578519 0.0 1012525
14:00+5сз568156 0.0 1012679
17:00+1с5988100 0.1 1012548
20:000с4974100 0.1 1013652